Disclaimer

Please do not use the information listed here in-flight or in-navigation, as they are not provided to us by the airports but are provided by volunteers, so they might be outdated.

Search


Regions


Airport information page

Radio informations:
METEO - 127.2 MHz
TRANSIT - 131.8 MHz
TAXIING - 121.8 MHz

Airport informations:
Latitude: 56° 22' 14.00" N
Longitude: 101° 41' 53.99" E
Elevation: 1610 feet - 491 meters
Operating hours: 24 hour operations
Operating agency: Civil government, landing fees and diplomatic clearance may be required
Timezone: UTC+8(+9DT) - Last Sunday in March to last Sunday in October
Fuel: N/A

Runway information:
12/30 - 10368 x 197 feet< - >3160 x 60 meters

Recent METARs:
UIBB 171400Z 25002MPS 220V280 3300 -SHSN BKN012CB M12/M14 Q1023 R30/490530 NOSIG RMK QFE724/0965
UIBB 171430Z AUTO 25003MPS 9000 // ///025/// M12/M14 Q1023 RMK QFE724/0965
UIBB 171500Z AUTO 25004MPS 9000 // ///022/// M12/M14 Q1023 RMK QFE724/0965

Airport on the map: